owner,sensor,date,latitude,longitude,sea_surface_height_above_sea_level,qcFlag 
COMPS,ioos:station:USF.COMPS:SHP:1,2019-07-01T00:54:00,30.0600,-84.2910,-0.419,11114222 
COMPS,ioos:station:USF.COMPS:SHP:1,2019-07-01T01:54:00,30.0600,-84.2910,-0.428,11114222 
COMPS,ioos:station:USF.COMPS:SHP:1,2019-07-01T02:54:00,30.0600,-84.2910,-0.416,11114222 
COMPS,ioos:station:USF.COMPS:SHP:1,2019-07-01T03:54:00,30.0600,-84.2910,-0.397,11114222 
COMPS,ioos:station:USF.COMPS:SHP:1,2019-07-01T04:54:00,30.0600,-84.2910,-0.376,11114222 
COMPS,ioos:station:USF.COMPS:SHP:1,2019-07-01T05:54:00,30.0600,-84.2910,-0.351,11114222 
COMPS,ioos:station:USF.COMPS:SHP:1,2019-07-01T06:54:00,30.0600,-84.2910,-0.324,11114222 
COMPS,ioos:station:USF.COMPS:SHP:1,2019-07-01T07:54:00,30.0600,-84.2910,-0.3,11114222 
COMPS,ioos:station:USF.COMPS:SHP:1,2019-07-01T08:54:00,30.0600,-84.2910,-0.282,11114222 
COMPS,ioos:station:USF.COMPS:SHP:1,2019-07-01T09:54:00,30.0600,-84.2910,-0.269,11114222 
COMPS,ioos:station:USF.COMPS:SHP:1,2019-07-01T10:54:00,30.0600,-84.2910,-0.263,11114222 
COMPS,ioos:station:USF.COMPS:SHP:1,2019-07-01T11:54:00,30.0600,-84.2910,-0.258,11114222 
COMPS,ioos:station:USF.COMPS:SHP:1,2019-07-01T12:54:00,30.0600,-84.2910,-0.256,11114222 
COMPS,ioos:station:USF.COMPS:SHP:1,2019-07-01T14:54:00,30.0600,-84.2910,-0.241,11114222 
COMPS,ioos:station:USF.COMPS:SHP:1,2019-07-01T15:54:00,30.0600,-84.2910,-0.225,11114222 
COMPS,ioos:station:USF.COMPS:SHP:1,2019-07-01T16:54:00,30.0600,-84.2910,-0.206,11114222 
COMPS,ioos:station:USF.COMPS:SHP:1,2019-07-01T17:54:00,30.0600,-84.2910,-0.185,11114222 
COMPS,ioos:station:USF.COMPS:SHP:1,2019-07-01T18:54:00,30.0600,-84.2910,-0.162,11114222 
COMPS,ioos:station:USF.COMPS:SHP:1,2019-07-01T19:54:00,30.0600,-84.2910,-0.141,11114222 
COMPS,ioos:station:USF.COMPS:SHP:1,2019-07-01T20:54:00,30.0600,-84.2910,-0.132,11114222 
COMPS,ioos:station:USF.COMPS:SHP:1,2019-07-01T21:54:00,30.0600,-84.2910,-0.12,11114222 
COMPS,ioos:station:USF.COMPS:SHP:1,2019-07-01T22:54:00,30.0600,-84.2910,-0.239,11114222 
COMPS,ioos:station:USF.COMPS:SHP:1,2019-07-01T23:54:00,30.0600,-84.2910,-0.434,11114222 
COMPS,ioos:station:USF.COMPS:SHP:1,2019-07-02T00:54:00,30.0600,-84.2910,-0.584,11114222 
COMPS,ioos:station:USF.COMPS:SHP:1,2019-07-02T01:54:00,30.0600,-84.2910,-0.62,11114222 
COMPS,ioos:station:USF.COMPS:SHP:1,2019-07-02T02:54:00,30.0600,-84.2910,-0.605,11114222 
COMPS,ioos:station:USF.COMPS:SHP:1,2019-07-02T03:54:00,30.0600,-84.2910,-0.586,11114222 
COMPS,ioos:station:USF.COMPS:SHP:1,2019-07-02T04:54:00,30.0600,-84.2910,-0.563,11114222 
COMPS,ioos:station:USF.COMPS:SHP:1,2019-07-02T05:54:00,30.0600,-84.2910,-0.532,11114222 
COMPS,ioos:station:USF.COMPS:SHP:1,2019-07-02T06:54:00,30.0600,-84.2910,-0.5,11114222 
COMPS,ioos:station:USF.COMPS:SHP:1,2019-07-02T07:54:00,30.0600,-84.2910,-0.465,11114222 
COMPS,ioos:station:USF.COMPS:SHP:1,2019-07-02T08:54:00,30.0600,-84.2910,-0.438,11114222 
COMPS,ioos:station:USF.COMPS:SHP:1,2019-07-02T09:54:00,30.0600,-84.2910,-0.42,11114222 
COMPS,ioos:station:USF.COMPS:SHP:1,2019-07-02T10:54:00,30.0600,-84.2910,-0.41,11114222 
COMPS,ioos:station:USF.COMPS:SHP:1,2019-07-02T11:54:00,30.0600,-84.2910,-0.402,11114222 
COMPS,ioos:station:USF.COMPS:SHP:1,2019-07-02T12:54:00,30.0600,-84.2910,-0.398,11114222 
COMPS,ioos:station:USF.COMPS:SHP:1,2019-07-02T13:54:00,30.0600,-84.2910,-0.391,11114222 
COMPS,ioos:station:USF.COMPS:SHP:1,2019-07-02T14:54:00,30.0600,-84.2910,-0.381,11114222 
COMPS,ioos:station:USF.COMPS:SHP:1,2019-07-02T15:54:00,30.0600,-84.2910,-0.366,11114222 
COMPS,ioos:station:USF.COMPS:SHP:1,2019-07-02T16:54:00,30.0600,-84.2910,-0.341,11114222 
COMPS,ioos:station:USF.COMPS:SHP:1,2019-07-02T17:54:00,30.0600,-84.2910,-0.311,11114222 
COMPS,ioos:station:USF.COMPS:SHP:1,2019-07-02T18:54:00,30.0600,-84.2910,-0.281,11114222 
COMPS,ioos:station:USF.COMPS:SHP:1,2019-07-02T19:54:00,30.0600,-84.2910,-0.261,11114222 
COMPS,ioos:station:USF.COMPS:SHP:1,2019-07-02T20:54:00,30.0600,-84.2910,-0.236,11114222 
COMPS,ioos:station:USF.COMPS:SHP:1,2019-07-02T21:54:00,30.0600,-84.2910,-0.23,11114222 
COMPS,ioos:station:USF.COMPS:SHP:1,2019-07-02T22:54:00,30.0600,-84.2910,-0.225,11114222 
COMPS,ioos:station:USF.COMPS:SHP:1,2019-07-02T23:54:00,30.0600,-84.2910,-0.342,11114222 
COMPS,ioos:station:USF.COMPS:SHP:1,2019-07-03T00:54:00,30.0600,-84.2910,-0.553,11114222 
COMPS,ioos:station:USF.COMPS:SHP:1,2019-07-03T01:54:00,30.0600,-84.2910,-0.66,11114222 
COMPS,ioos:station:USF.COMPS:SHP:1,2019-07-03T02:54:00,30.0600,-84.2910,-0.672,11114222 
COMPS,ioos:station:USF.COMPS:SHP:1,2019-07-03T03:54:00,30.0600,-84.2910,-0.65,11114222 
COMPS,ioos:station:USF.COMPS:SHP:1,2019-07-03T04:54:00,30.0600,-84.2910,-0.625,11114222 
COMPS,ioos:station:USF.COMPS:SHP:1,2019-07-03T05:54:00,30.0600,-84.2910,-0.593,11114222 
COMPS,ioos:station:USF.COMPS:SHP:1,2019-07-03T06:54:00,30.0600,-84.2910,-0.555,11114222 
COMPS,ioos:station:USF.COMPS:SHP:1,2019-07-03T07:54:00,30.0600,-84.2910,-0.516,11114222 
COMPS,ioos:station:USF.COMPS:SHP:1,2019-07-03T08:54:00,30.0600,-84.2910,-0.476,11114222 
COMPS,ioos:station:USF.COMPS:SHP:1,2019-07-03T09:54:00,30.0600,-84.2910,-0.442,11114222 
COMPS,ioos:station:USF.COMPS:SHP:1,2019-07-03T10:54:00,30.0600,-84.2910,-0.419,11114222 
COMPS,ioos:station:USF.COMPS:SHP:1,2019-07-03T11:54:00,30.0600,-84.2910,-0.406,11114222 
COMPS,ioos:station:USF.COMPS:SHP:1,2019-07-03T12:54:00,30.0600,-84.2910,-0.4,11114222 
COMPS,ioos:station:USF.COMPS:SHP:1,2019-07-03T13:54:00,30.0600,-84.2910,-0.394,11114222 
COMPS,ioos:station:USF.COMPS:SHP:1,2019-07-03T14:54:00,30.0600,-84.2910,-0.387,11114222 
COMPS,ioos:station:USF.COMPS:SHP:1,2019-07-03T15:54:00,30.0600,-84.2910,-0.372,11114222 
COMPS,ioos:station:USF.COMPS:SHP:1,2019-07-03T16:54:00,30.0600,-84.2910,-0.346,11114222 
COMPS,ioos:station:USF.COMPS:SHP:1,2019-07-03T17:54:00,30.0600,-84.2910,-0.316,11114222 
COMPS,ioos:station:USF.COMPS:SHP:1,2019-07-03T18:54:00,30.0600,-84.2910,-0.28,11114222 
COMPS,ioos:station:USF.COMPS:SHP:1,2019-07-03T19:54:00,30.0600,-84.2910,-0.243,11114222 
COMPS,ioos:station:USF.COMPS:SHP:1,2019-07-03T20:54:00,30.0600,-84.2910,-0.208,11114222 
COMPS,ioos:station:USF.COMPS:SHP:1,2019-07-03T21:54:00,30.0600,-84.2910,-0.188,11114222 
COMPS,ioos:station:USF.COMPS:SHP:1,2019-07-03T22:54:00,30.0600,-84.2910,-0.18,11114222 
COMPS,ioos:station:USF.COMPS:SHP:1,2019-07-03T23:54:00,30.0600,-84.2910,-0.193,11114222 
COMPS,ioos:station:USF.COMPS:SHP:1,2019-07-04T00:54:00,30.0600,-84.2910,-0.406,11114222 
COMPS,ioos:station:USF.COMPS:SHP:1,2019-07-04T01:54:00,30.0600,-84.2910,-0.6,11114222 
COMPS,ioos:station:USF.COMPS:SHP:1,2019-07-04T02:54:00,30.0600,-84.2910,-0.683,11114222 
COMPS,ioos:station:USF.COMPS:SHP:1,2019-07-04T03:54:00,30.0600,-84.2910,-0.687,11114222 
COMPS,ioos:station:USF.COMPS:SHP:1,2019-07-04T04:54:00,30.0600,-84.2910,-0.666,11114222 
COMPS,ioos:station:USF.COMPS:SHP:1,2019-07-04T05:54:00,30.0600,-84.2910,-0.637,11114222 
COMPS,ioos:station:USF.COMPS:SHP:1,2019-07-04T06:54:00,30.0600,-84.2910,-0.599,11114222 
COMPS,ioos:station:USF.COMPS:SHP:1,2019-07-04T07:54:00,30.0600,-84.2910,-0.552,11114222 
COMPS,ioos:station:USF.COMPS:SHP:1,2019-07-04T08:54:00,30.0600,-84.2910,-0.506,11114222 
COMPS,ioos:station:USF.COMPS:SHP:1,2019-07-04T09:54:00,30.0600,-84.2910,-0.463,11114222 
COMPS,ioos:station:USF.COMPS:SHP:1,2019-07-04T10:54:00,30.0600,-84.2910,-0.426,11114222 
COMPS,ioos:station:USF.COMPS:SHP:1,2019-07-04T11:54:00,30.0600,-84.2910,-0.402,11114222 
COMPS,ioos:station:USF.COMPS:SHP:1,2019-07-04T12:54:00,30.0600,-84.2910,-0.395,11114222 
COMPS,ioos:station:USF.COMPS:SHP:1,2019-07-04T13:54:00,30.0600,-84.2910,-0.393,11114222 
COMPS,ioos:station:USF.COMPS:SHP:1,2019-07-04T14:54:00,30.0600,-84.2910,-0.379,11114222 
COMPS,ioos:station:USF.COMPS:SHP:1,2019-07-04T15:54:00,30.0600,-84.2910,-0.359,11114222 
COMPS,ioos:station:USF.COMPS:SHP:1,2019-07-04T16:54:00,30.0600,-84.2910,-0.334,11114222 
COMPS,ioos:station:USF.COMPS:SHP:1,2019-07-04T17:54:00,30.0600,-84.2910,-0.304,11114222 
COMPS,ioos:station:USF.COMPS:SHP:1,2019-07-04T18:54:00,30.0600,-84.2910,-0.263,11114222 
COMPS,ioos:station:USF.COMPS:SHP:1,2019-07-04T19:54:00,30.0600,-84.2910,-0.22,11114222 
COMPS,ioos:station:USF.COMPS:SHP:1,2019-07-04T20:54:00,30.0600,-84.2910,-0.182,11114222 
COMPS,ioos:station:USF.COMPS:SHP:1,2019-07-04T21:54:00,30.0600,-84.2910,-0.146,11114222 
COMPS,ioos:station:USF.COMPS:SHP:1,2019-07-04T22:54:00,30.0600,-84.2910,-0.124,11114222 
COMPS,ioos:station:USF.COMPS:SHP:1,2019-07-04T23:54:00,30.0600,-84.2910,-0.11,11114222 
COMPS,ioos:station:USF.COMPS:SHP:1,2019-07-05T00:54:00,30.0600,-84.2910,-0.124,11114222 
COMPS,ioos:station:USF.COMPS:SHP:1,2019-07-05T01:54:00,30.0600,-84.2910,-0.305,11114222 
COMPS,ioos:station:USF.COMPS:SHP:1,2019-07-05T02:54:00,30.0600,-84.2910,-0.444,11114222 
COMPS,ioos:station:USF.COMPS:SHP:1,2019-07-05T03:54:00,30.0600,-84.2910,-0.549,11114222 
COMPS,ioos:station:USF.COMPS:SHP:1,2019-07-05T04:54:00,30.0600,-84.2910,-0.594,11114222 
COMPS,ioos:station:USF.COMPS:SHP:1,2019-07-05T05:54:00,30.0600,-84.2910,-0.571,11114222 
COMPS,ioos:station:USF.COMPS:SHP:1,2019-07-05T06:54:00,30.0600,-84.2910,-0.541,11114222 
COMPS,ioos:station:USF.COMPS:SHP:1,2019-07-05T07:54:00,30.0600,-84.2910,-0.501,11114222 
COMPS,ioos:station:USF.COMPS:SHP:1,2019-07-05T08:54:00,30.0600,-84.2910,-0.454,11114222 
COMPS,ioos:station:USF.COMPS:SHP:1,2019-07-05T09:54:00,30.0600,-84.2910,-0.406,11114222 
COMPS,ioos:station:USF.COMPS:SHP:1,2019-07-05T10:54:00,30.0600,-84.2910,-0.359,11114222 
COMPS,ioos:station:USF.COMPS:SHP:1,2019-07-05T11:54:00,30.0600,-84.2910,-0.323,11114222 
COMPS,ioos:station:USF.COMPS:SHP:1,2019-07-05T12:54:00,30.0600,-84.2910,-0.305,11114222 
COMPS,ioos:station:USF.COMPS:SHP:1,2019-07-05T13:54:00,30.0600,-84.2910,-0.291,11114222 
COMPS,ioos:station:USF.COMPS:SHP:1,2019-07-05T14:54:00,30.0600,-84.2910,-0.275,11114222 
COMPS,ioos:station:USF.COMPS:SHP:1,2019-07-05T15:54:00,30.0600,-84.2910,-0.262,11114222 
COMPS,ioos:station:USF.COMPS:SHP:1,2019-07-05T16:54:00,30.0600,-84.2910,-0.247,11114222 
COMPS,ioos:station:USF.COMPS:SHP:1,2019-07-05T17:54:00,30.0600,-84.2910,-0.228,11114222 
COMPS,ioos:station:USF.COMPS:SHP:1,2019-07-05T18:54:00,30.0600,-84.2910,-0.206,11114222 
COMPS,ioos:station:USF.COMPS:SHP:1,2019-07-05T19:54:00,30.0600,-84.2910,-0.17,11114222 
COMPS,ioos:station:USF.COMPS:SHP:1,2019-07-05T20:54:00,30.0600,-84.2910,-0.131,11114222 
COMPS,ioos:station:USF.COMPS:SHP:1,2019-07-05T21:54:00,30.0600,-84.2910,-0.092,11114222 
COMPS,ioos:station:USF.COMPS:SHP:1,2019-07-05T22:54:00,30.0600,-84.2910,-0.064,11114222 
COMPS,ioos:station:USF.COMPS:SHP:1,2019-07-05T23:54:00,30.0600,-84.2910,-0.047,11114222 
COMPS,ioos:station:USF.COMPS:SHP:1,2019-07-06T00:54:00,30.0600,-84.2910,-0.042,11114222 
COMPS,ioos:station:USF.COMPS:SHP:1,2019-07-06T01:54:00,30.0600,-84.2910,-0.079,11114222 
COMPS,ioos:station:USF.COMPS:SHP:1,2019-07-06T02:54:00,30.0600,-84.2910,-0.265,11114222 
COMPS,ioos:station:USF.COMPS:SHP:1,2019-07-06T03:54:00,30.0600,-84.2910,-0.434,11114222 
COMPS,ioos:station:USF.COMPS:SHP:1,2019-07-06T04:54:00,30.0600,-84.2910,-0.515,11114222 
COMPS,ioos:station:USF.COMPS:SHP:1,2019-07-06T05:54:00,30.0600,-84.2910,-0.506,11114222 
COMPS,ioos:station:USF.COMPS:SHP:1,2019-07-06T06:54:00,30.0600,-84.2910,-0.489,11114222 
COMPS,ioos:station:USF.COMPS:SHP:1,2019-07-06T07:54:00,30.0600,-84.2910,-0.458,11114222 
COMPS,ioos:station:USF.COMPS:SHP:1,2019-07-06T08:54:00,30.0600,-84.2910,-0.42,11114222 
COMPS,ioos:station:USF.COMPS:SHP:1,2019-07-06T09:54:00,30.0600,-84.2910,-0.381,11114222 
COMPS,ioos:station:USF.COMPS:SHP:1,2019-07-06T10:54:00,30.0600,-84.2910,-0.339,11114222 
COMPS,ioos:station:USF.COMPS:SHP:1,2019-07-06T11:54:00,30.0600,-84.2910,-0.304,11114222 
COMPS,ioos:station:USF.COMPS:SHP:1,2019-07-06T12:54:00,30.0600,-84.2910,-0.279,11114222 
COMPS,ioos:station:USF.COMPS:SHP:1,2019-07-06T13:54:00,30.0600,-84.2910,-0.262,11114222 
COMPS,ioos:station:USF.COMPS:SHP:1,2019-07-06T14:54:00,30.0600,-84.2910,-0.254,11114222 
COMPS,ioos:station:USF.COMPS:SHP:1,2019-07-06T15:54:00,30.0600,-84.2910,-0.245,11114222 
COMPS,ioos:station:USF.COMPS:SHP:1,2019-07-06T16:54:00,30.0600,-84.2910,-0.234,11114222 
COMPS,ioos:station:USF.COMPS:SHP:1,2019-07-06T17:54:00,30.0600,-84.2910,-0.224,11114222 
COMPS,ioos:station:USF.COMPS:SHP:1,2019-07-06T18:54:00,30.0600,-84.2910,-0.198,11114222 
COMPS,ioos:station:USF.COMPS:SHP:1,2019-07-06T19:54:00,30.0600,-84.2910,-0.173,11114222 
COMPS,ioos:station:USF.COMPS:SHP:1,2019-07-06T20:54:00,30.0600,-84.2910,-0.145,11114222 
COMPS,ioos:station:USF.COMPS:SHP:1,2019-07-06T21:54:00,30.0600,-84.2910,-0.112,11114222 
COMPS,ioos:station:USF.COMPS:SHP:1,2019-07-06T22:54:00,30.0600,-84.2910,-0.085,11114222 
COMPS,ioos:station:USF.COMPS:SHP:1,2019-07-06T23:54:00,30.0600,-84.2910,-0.07,11114222 
COMPS,ioos:station:USF.COMPS:SHP:1,2019-07-07T00:54:00,30.0600,-84.2910,-0.061,11114222 
COMPS,ioos:station:USF.COMPS:SHP:1,2019-07-07T01:54:00,30.0600,-84.2910,-0.059,11114222 
COMPS,ioos:station:USF.COMPS:SHP:1,2019-07-07T02:54:00,30.0600,-84.2910,-0.204,11114222 
COMPS,ioos:station:USF.COMPS:SHP:1,2019-07-07T03:54:00,30.0600,-84.2910,-0.342,11114222 
COMPS,ioos:station:USF.COMPS:SHP:1,2019-07-07T04:54:00,30.0600,-84.2910,-0.401,11114222 
COMPS,ioos:station:USF.COMPS:SHP:1,2019-07-07T05:54:00,30.0600,-84.2910,-0.404,11114222 
COMPS,ioos:station:USF.COMPS:SHP:1,2019-07-07T06:54:00,30.0600,-84.2910,-0.391,11114222 
COMPS,ioos:station:USF.COMPS:SHP:1,2019-07-07T07:54:00,30.0600,-84.2910,-0.373,11114222 
COMPS,ioos:station:USF.COMPS:SHP:1,2019-07-07T08:54:00,30.0600,-84.2910,-0.35,11114222 
COMPS,ioos:station:USF.COMPS:SHP:1,2019-07-07T09:54:00,30.0600,-84.2910,-0.319,11114222 
COMPS,ioos:station:USF.COMPS:SHP:1,2019-07-07T10:54:00,30.0600,-84.2910,-0.285,11114222 
COMPS,ioos:station:USF.COMPS:SHP:1,2019-07-07T11:54:00,30.0600,-84.2910,-0.254,11114222 
COMPS,ioos:station:USF.COMPS:SHP:1,2019-07-07T12:54:00,30.0600,-84.2910,-0.232,11114222 
COMPS,ioos:station:USF.COMPS:SHP:1,2019-07-07T13:54:00,30.0600,-84.2910,-0.218,11114222 
COMPS,ioos:station:USF.COMPS:SHP:1,2019-07-07T14:54:00,30.0600,-84.2910,-0.205,11114222 
COMPS,ioos:station:USF.COMPS:SHP:1,2019-07-07T15:54:00,30.0600,-84.2910,-0.204,11114222 
COMPS,ioos:station:USF.COMPS:SHP:1,2019-07-07T16:54:00,30.0600,-84.2910,-0.194,11114222 
COMPS,ioos:station:USF.COMPS:SHP:1,2019-07-07T17:54:00,30.0600,-84.2910,-0.184,11114222 
COMPS,ioos:station:USF.COMPS:SHP:1,2019-07-07T18:54:00,30.0600,-84.2910,-0.165,11114222 
COMPS,ioos:station:USF.COMPS:SHP:1,2019-07-07T19:54:00,30.0600,-84.2910,-0.149,11114222 
COMPS,ioos:station:USF.COMPS:SHP:1,2019-07-07T20:54:00,30.0600,-84.2910,-0.128,11114222 
COMPS,ioos:station:USF.COMPS:SHP:1,2019-07-07T21:54:00,30.0600,-84.2910,-0.102,11114222 
COMPS,ioos:station:USF.COMPS:SHP:1,2019-07-07T22:54:00,30.0600,-84.2910,-0.076,11114222 
COMPS,ioos:station:USF.COMPS:SHP:1,2019-07-07T23:54:00,30.0600,-84.2910,-0.051,11114222 
COMPS,ioos:station:USF.COMPS:SHP:1,2019-07-08T00:54:00,30.0600,-84.2910,-0.034,11114222 
COMPS,ioos:station:USF.COMPS:SHP:1,2019-07-08T01:54:00,30.0600,-84.2910,-0.021,11114222 
COMPS,ioos:station:USF.COMPS:SHP:1,2019-07-08T02:54:00,30.0600,-84.2910,-0.021,11114222 
COMPS,ioos:station:USF.COMPS:SHP:1,2019-07-08T03:54:00,30.0600,-84.2910,-0.159,11114222 
COMPS,ioos:station:USF.COMPS:SHP:1,2019-07-08T04:54:00,30.0600,-84.2910,-0.304,11114222 
COMPS,ioos:station:USF.COMPS:SHP:1,2019-07-08T05:54:00,30.0600,-84.2910,-0.372,11114222 
COMPS,ioos:station:USF.COMPS:SHP:1,2019-07-08T06:54:00,30.0600,-84.2910,-0.376,11114222 
COMPS,ioos:station:USF.COMPS:SHP:1,2019-07-08T07:54:00,30.0600,-84.2910,-0.361,11114222 
COMPS,ioos:station:USF.COMPS:SHP:1,2019-07-08T08:54:00,30.0600,-84.2910,-0.343,11114222 
COMPS,ioos:station:USF.COMPS:SHP:1,2019-07-08T09:54:00,30.0600,-84.2910,-0.318,11114222 
COMPS,ioos:station:USF.COMPS:SHP:1,2019-07-08T10:54:00,30.0600,-84.2910,-0.289,11114222 
COMPS,ioos:station:USF.COMPS:SHP:1,2019-07-08T11:54:00,30.0600,-84.2910,-0.259,11114222 
COMPS,ioos:station:USF.COMPS:SHP:1,2019-07-08T12:54:00,30.0600,-84.2910,-0.233,11114222 
COMPS,ioos:station:USF.COMPS:SHP:1,2019-07-08T13:54:00,30.0600,-84.2910,-0.214,11114222 
COMPS,ioos:station:USF.COMPS:SHP:1,2019-07-08T14:54:00,30.0600,-84.2910,-0.205,11114222 
COMPS,ioos:station:USF.COMPS:SHP:1,2019-07-08T15:54:00,30.0600,-84.2910,-0.199,11114222 
COMPS,ioos:station:USF.COMPS:SHP:1,2019-07-08T16:54:00,30.0600,-84.2910,-0.199,11114222 
COMPS,ioos:station:USF.COMPS:SHP:1,2019-07-08T17:54:00,30.0600,-84.2910,-0.191,11114222 
COMPS,ioos:station:USF.COMPS:SHP:1,2019-07-08T18:54:00,30.0600,-84.2910,-0.179,11114222 
COMPS,ioos:station:USF.COMPS:SHP:1,2019-07-08T19:54:00,30.0600,-84.2910,-0.172,11114222 
COMPS,ioos:station:USF.COMPS:SHP:1,2019-07-08T20:54:00,30.0600,-84.2910,-0.156,11114222 
COMPS,ioos:station:USF.COMPS:SHP:1,2019-07-08T21:54:00,30.0600,-84.2910,-0.147,11114222 
COMPS,ioos:station:USF.COMPS:SHP:1,2019-07-08T22:54:00,30.0600,-84.2910,-0.118,11114222 
COMPS,ioos:station:USF.COMPS:SHP:1,2019-07-08T23:54:00,30.0600,-84.2910,-0.099,11114222 
COMPS,ioos:station:USF.COMPS:SHP:1,2019-07-09T00:54:00,30.0600,-84.2910,-0.081,11114222 
COMPS,ioos:station:USF.COMPS:SHP:1,2019-07-09T01:54:00,30.0600,-84.2910,-0.069,11114222 
COMPS,ioos:station:USF.COMPS:SHP:1,2019-07-09T02:54:00,30.0600,-84.2910,-0.062,11114222 
COMPS,ioos:station:USF.COMPS:SHP:1,2019-07-09T03:54:00,30.0600,-84.2910,-0.059,11114222 
COMPS,ioos:station:USF.COMPS:SHP:1,2019-07-09T04:54:00,30.0600,-84.2910,-0.076,11114222 
COMPS,ioos:station:USF.COMPS:SHP:1,2019-07-09T05:54:00,30.0600,-84.2910,-0.16,11114222 
COMPS,ioos:station:USF.COMPS:SHP:1,2019-07-09T06:54:00,30.0600,-84.2910,-0.19,11114222 
COMPS,ioos:station:USF.COMPS:SHP:1,2019-07-09T07:54:00,30.0600,-84.2910,-0.189,11114222 
COMPS,ioos:station:USF.COMPS:SHP:1,2019-07-09T08:54:00,30.0600,-84.2910,-0.177,11114222 
COMPS,ioos:station:USF.COMPS:SHP:1,2019-07-09T09:54:00,30.0600,-84.2910,-0.16,11114222 
COMPS,ioos:station:USF.COMPS:SHP:1,2019-07-09T10:54:00,30.0600,-84.2910,-0.14,11114222 
COMPS,ioos:station:USF.COMPS:SHP:1,2019-07-09T11:54:00,30.0600,-84.2910,-0.116,11114222 
COMPS,ioos:station:USF.COMPS:SHP:1,2019-07-09T12:54:00,30.0600,-84.2910,-0.099,11114222 
COMPS,ioos:station:USF.COMPS:SHP:1,2019-07-09T13:54:00,30.0600,-84.2910,-0.082,11114222 
COMPS,ioos:station:USF.COMPS:SHP:1,2019-07-09T14:54:00,30.0600,-84.2910,-0.064,11114222 
COMPS,ioos:station:USF.COMPS:SHP:1,2019-07-09T15:54:00,30.0600,-84.2910,-0.048,11114222 
COMPS,ioos:station:USF.COMPS:SHP:1,2019-07-09T16:54:00,30.0600,-84.2910,-0.043,11114222 
COMPS,ioos:station:USF.COMPS:SHP:1,2019-07-09T17:54:00,30.0600,-84.2910,-0.042,11114222 
COMPS,ioos:station:USF.COMPS:SHP:1,2019-07-09T18:54:00,30.0600,-84.2910,-0.061,11114222 
COMPS,ioos:station:USF.COMPS:SHP:1,2019-07-09T19:54:00,30.0600,-84.2910,-0.069,11114222 
COMPS,ioos:station:USF.COMPS:SHP:1,2019-07-09T20:54:00,30.0600,-84.2910,-0.091,11114222 
COMPS,ioos:station:USF.COMPS:SHP:1,2019-07-09T21:54:00,30.0600,-84.2910,-0.082,11114222 
COMPS,ioos:station:USF.COMPS:SHP:1,2019-07-09T22:54:00,30.0600,-84.2910,-0.069,11114222 
COMPS,ioos:station:USF.COMPS:SHP:1,2019-07-09T23:54:00,30.0600,-84.2910,-0.055,11114222 
COMPS,ioos:station:USF.COMPS:SHP:1,2019-07-10T00:54:00,30.0600,-84.2910,-0.038,11114222 
COMPS,ioos:station:USF.COMPS:SHP:1,2019-07-10T01:54:00,30.0600,-84.2910,-0.022,11114222 
COMPS,ioos:station:USF.COMPS:SHP:1,2019-07-10T02:54:00,30.0600,-84.2910,-0.009,11114222 
COMPS,ioos:station:USF.COMPS:SHP:1,2019-07-10T03:54:00,30.0600,-84.2910,-0.003,11114222 
COMPS,ioos:station:USF.COMPS:SHP:1,2019-07-10T04:54:00,30.0600,-84.2910,-0.001,11114222 
COMPS,ioos:station:USF.COMPS:SHP:1,2019-07-10T05:54:00,30.0600,-84.2910,-0.007,11114222 
COMPS,ioos:station:USF.COMPS:SHP:1,2019-07-10T06:54:00,30.0600,-84.2910,-0.022,11114222 
COMPS,ioos:station:USF.COMPS:SHP:1,2019-07-10T07:54:00,30.0600,-84.2910,-0.024,11114222 
COMPS,ioos:station:USF.COMPS:SHP:1,2019-07-10T08:54:00,30.0600,-84.2910,-0.018,11114222 
COMPS,ioos:station:USF.COMPS:SHP:1,2019-07-10T09:54:00,30.0600,-84.2910,-0.007,11114222 
COMPS,ioos:station:USF.COMPS:SHP:1,2019-07-10T10:54:00,30.0600,-84.2910,0.005,11111222 
COMPS,ioos:station:USF.COMPS:SHP:1,2019-07-10T11:54:00,30.0600,-84.2910,0.023,11111222 
COMPS,ioos:station:USF.COMPS:SHP:1,2019-07-10T12:54:00,30.0600,-84.2910,0.044,11111222 
COMPS,ioos:station:USF.COMPS:SHP:1,2019-07-10T13:54:00,30.0600,-84.2910,0.067,11111222 
COMPS,ioos:station:USF.COMPS:SHP:1,2019-07-10T14:54:00,30.0600,-84.2910,0.086,11111222 
COMPS,ioos:station:USF.COMPS:SHP:1,2019-07-10T15:54:00,30.0600,-84.2910,0.099,11111222 
COMPS,ioos:station:USF.COMPS:SHP:1,2019-07-10T16:54:00,30.0600,-84.2910,0.111,11111222 
COMPS,ioos:station:USF.COMPS:SHP:1,2019-07-10T17:54:00,30.0600,-84.2910,0.114,11111222 
COMPS,ioos:station:USF.COMPS:SHP:1,2019-07-10T18:54:00,30.0600,-84.2910,0.059,11111222 
COMPS,ioos:station:USF.COMPS:SHP:1,2019-07-10T19:54:00,30.0600,-84.2910,-0.028,11114222 
COMPS,ioos:station:USF.COMPS:SHP:1,2019-07-10T20:54:00,30.0600,-84.2910,-0.062,11114222 
COMPS,ioos:station:USF.COMPS:SHP:1,2019-07-10T21:54:00,30.0600,-84.2910,-0.054,11114222 
COMPS,ioos:station:USF.COMPS:SHP:1,2019-07-10T22:54:00,30.0600,-84.2910,-0.044,11114222 
COMPS,ioos:station:USF.COMPS:SHP:1,2019-07-10T23:54:00,30.0600,-84.2910,-0.033,11114222 
COMPS,ioos:station:USF.COMPS:SHP:1,2019-07-11T00:54:00,30.0600,-84.2910,-0.016,11114222 
COMPS,ioos:station:USF.COMPS:SHP:1,2019-07-11T01:54:00,30.0600,-84.2910,0.004,11111222 
COMPS,ioos:station:USF.COMPS:SHP:1,2019-07-11T02:54:00,30.0600,-84.2910,0.023,11111222 
COMPS,ioos:station:USF.COMPS:SHP:1,2019-07-11T03:54:00,30.0600,-84.2910,0.04,11111222 
COMPS,ioos:station:USF.COMPS:SHP:1,2019-07-11T04:54:00,30.0600,-84.2910,0.053,11111222 
COMPS,ioos:station:USF.COMPS:SHP:1,2019-07-11T05:54:00,30.0600,-84.2910,0.063,11111222 
COMPS,ioos:station:USF.COMPS:SHP:1,2019-07-11T06:54:00,30.0600,-84.2910,0.071,11111222 
COMPS,ioos:station:USF.COMPS:SHP:1,2019-07-11T07:54:00,30.0600,-84.2910,0.077,11111222 
COMPS,ioos:station:USF.COMPS:SHP:1,2019-07-11T08:54:00,30.0600,-84.2910,0.083,11111222 
COMPS,ioos:station:USF.COMPS:SHP:1,2019-07-11T09:54:00,30.0600,-84.2910,0.091,11111222 
COMPS,ioos:station:USF.COMPS:SHP:1,2019-07-11T10:54:00,30.0600,-84.2910,0.101,11111222 
COMPS,ioos:station:USF.COMPS:SHP:1,2019-07-11T11:54:00,30.0600,-84.2910,0.121,11111222 
COMPS,ioos:station:USF.COMPS:SHP:1,2019-07-11T12:54:00,30.0600,-84.2910,0.142,11111222 
COMPS,ioos:station:USF.COMPS:SHP:1,2019-07-11T13:54:00,30.0600,-84.2910,0.156,11111222 
COMPS,ioos:station:USF.COMPS:SHP:1,2019-07-11T14:54:00,30.0600,-84.2910,0.176,11111222 
COMPS,ioos:station:USF.COMPS:SHP:1,2019-07-11T15:54:00,30.0600,-84.2910,0.194,11111222 
COMPS,ioos:station:USF.COMPS:SHP:1,2019-07-11T16:54:00,30.0600,-84.2910,0.211,11111222 
COMPS,ioos:station:USF.COMPS:SHP:1,2019-07-11T17:54:00,30.0600,-84.2910,0.225,11111222 
COMPS,ioos:station:USF.COMPS:SHP:1,2019-07-11T18:54:00,30.0600,-84.2910,0.23,11111222 
COMPS,ioos:station:USF.COMPS:SHP:1,2019-07-11T19:54:00,30.0600,-84.2910,0.14,11111222 
COMPS,ioos:station:USF.COMPS:SHP:1,2019-07-11T20:54:00,30.0600,-84.2910,0.042,11111222 
COMPS,ioos:station:USF.COMPS:SHP:1,2019-07-11T21:54:00,30.0600,-84.2910,-0.005,11114222 
COMPS,ioos:station:USF.COMPS:SHP:1,2019-07-11T22:54:00,30.0600,-84.2910,-0.031,11114222 
COMPS,ioos:station:USF.COMPS:SHP:1,2019-07-11T23:54:00,30.0600,-84.2910,-0.03,11114222 
COMPS,ioos:station:USF.COMPS:SHP:1,2019-07-12T00:54:00,30.0600,-84.2910,-0.023,11114222 
COMPS,ioos:station:USF.COMPS:SHP:1,2019-07-12T01:54:00,30.0600,-84.2910,-0.009,11114222 
COMPS,ioos:station:USF.COMPS:SHP:1,2019-07-12T02:54:00,30.0600,-84.2910,0.008,11111222 
COMPS,ioos:station:USF.COMPS:SHP:1,2019-07-12T03:54:00,30.0600,-84.2910,0.028,11111222 
COMPS,ioos:station:USF.COMPS:SHP:1,2019-07-12T04:54:00,30.0600,-84.2910,0.048,11111222 
COMPS,ioos:station:USF.COMPS:SHP:1,2019-07-12T05:54:00,30.0600,-84.2910,0.067,11111222 